Regional Weather Roundup
Issued by NWS

Home | Current Version | Previous Version | Graphics & Text | Print | Product List | Glossary Off
Versions: 1 2 3 4 5 6 7 8 9 10 11 12 13 14 15 16 17 18 19 20 21 22 23 24 25 26 27 28 29 30 31 32 33 34 35 36 37 38 39 40 41 42 43 44 45 46 47 48 49 50

000
ASUS43 KMKX 300959
RWRWI

WISCONSIN REGIONAL WEATHER ROUNDUP
NATIONAL WEATHER SERVICE MILWAUKEE/SULLIVAN WI
500 AM CDT MON MAR 30 2015

NOTE: "FAIR" INDICATES FEW OR NO CLOUDS BELOW 12,000 FEET WITH NO
SIGNIFICANT WEATHER AND/OR OBSTRUCTIONS TO VISIBILITY.

WIZ001-002-006>008-014>016-023>028-301100-
NORTHWEST WISCONSIN

CITY           SKY/WX    TMP DP  RH WIND       PRES   REMARKS
SUPERIOR ARPT  CLEAR     32  26  77 SW7       29.88R WCI  26
ASHLAND        CLEAR     35  25  66 W7        29.85R WCI  29
HAYWARD        CLEAR     35  24  64 W5        29.89R WCI  31
SIREN          CLEAR     32  25  73 W7        29.92R WCI  26
CUMBERLAND     CLEAR     32  25  74 W8        29.91S WCI  25
RICE LAKE      CLEAR     34  26  71 W7        29.93R WCI  28
CHETEK         CLEAR     36  26  66 W3        29.91S
LADYSMITH      CLEAR     33  26  76 W6        29.91R WCI  27
EAU CLAIRE     NOT AVBL
MENOMONIE      MOCLDY    38  25  60 SW7       29.93S WCI  33
NEW RICHMOND   MOCLDY    34  27  76 CALM      29.94S
OSCEOLA        CLOUDY    35  28  76 CALM      29.96S
$$

WIZ003>005-009-010-017-018-301100-
NORTH CENTRAL WISCONSIN

CITY           SKY/WX    TMP DP  RH WIND       PRES   REMARKS
MANITOWISH WTR CLEAR     31  26  80 W7        29.80R WCI  25
ARBOR VITAE    CLEAR     34  28  77 W7        29.80S WCI  28
WOODRUFF       CLEAR     34  28  77 W7        29.80S WCI  28
RHINELANDER    CLEAR     31  25  78 W12       29.82R WCI  22
EAGLE RIVER    CLEAR     32  24  73 W10       29.78S WCI  24
LAND O LAKES   CLEAR     33  26  78 W6        29.78R WCI  27
PHILLIPS       CLEAR     32  25  77 W5        29.85R WCI  27
TOMAHAWK       CLEAR     33  26  73 W5        29.84S WCI  29
MEDFORD        CLEAR     32  26  77 W9        29.87R WCI  24
MERRILL        CLEAR     32  27  81 W9        29.85R WCI  24
$$

WIZ029-030-035-036-043>047-301100-
CENTRAL WISCONSIN

CITY           SKY/WX    TMP DP  RH WIND       PRES   REMARKS
WAUSAU         CLEAR     34  26  72 W13       29.85S WCI  25
MOSINEE        CLEAR     30  28  93 W7        29.88S WCI  23
MARSHFIELD     CLEAR     35  26  69 W10       29.90R WCI  27
STEVENS POINT  CLEAR     33  25  74 W7        29.89S WCI  26
WAUPACA        CLEAR     34  27  74 W7        29.89S WCI  28
WAUTOMA        NOT AVBL
WISC RAPIDS    CLEAR     32  24  72 W7        29.92S WCI  26
CAMP DOUGLAS   NOT AVBL
$$

WIZ011>013-019>022-031-037>040-048>050-301100-
NORTHEAST WISCONSIN

CITY           SKY/WX    TMP DP  RH WIND       PRES   REMARKS
ANTIGO         CLEAR     32  27  80 W12G17    29.83R WCI  23
SHAWANO        CLEAR     35  28  76 SW6       29.85S WCI  30
OCONTO         CLEAR     35  28  78 W9        29.82S WCI  27
STURGEON BAY   CLEAR     36  27  69 W14       29.82S WCI  27
GREEN BAY      CLEAR     35  29  78 SW9       29.86S WCI  28
MANITOWOC      NOT AVBL
APPLETON       CLEAR     32  27  80 W8        29.88S WCI  25
CLINTONVILLE   CLEAR     34  28  80 W9        29.86S WCI  26
OSHKOSH        CLEAR     35  26  69 W7        29.89S WCI  29
$$

WIZ032>034-041-042-053>061-301100-
SOUTHWEST WISCONSIN

CITY           SKY/WX    TMP DP  RH WIND       PRES   REMARKS
LA CROSSE      CLOUDY    34  28  79 SE5       29.98R WCI  30
SPARTA         CLEAR     35  27  74 SW5       29.97R WCI  31
VIROQUA        PTCLDY    34  28  79 W8        29.96R WCI  27
BOSCOBEL       MOCLDY    32  27  81 SW5       30.00R WCI  27
PRAIRIE DU CHI CLEAR     36  28  71 CALM      30.00S
PLATTEVILLE    CLEAR     36  29  77 SW5       29.99S WCI  32
$$

WIZ056-057-062-063-064-067-068-301100-
SOUTH CENTRAL WISCONSIN

CITY           SKY/WX    TMP DP  RH WIND       PRES   REMARKS
REEDSBURG      CLEAR     28  26  96 CALM      29.95R
BARABOO/DELLS  CLEAR     33  26  75 W5        29.95R WCI  29
LONE ROCK      NOT AVBL
MINERAL POINT  CLEAR     36  28  75 W7        29.97S WCI  30
MADISON        CLEAR     36  27  69 VRB5      29.96R WCI  32
MIDDLETON      CLEAR     35  28  76 CALM      29.96S
WATERTOWN      CLEAR     33  29  86 W3        29.94R
MONROE         FAIR      34  30  86 W14       29.97S WCI  24
JANESVILLE     CLEAR     36  28  75 W7        29.97R WCI  30
$$

WIZ051-052-058>065-066-070>072-301100-
SOUTHEAST WISCONSIN

CITY           SKY/WX    TMP DP  RH WIND       PRES   REMARKS
MILWAUKEE      PTCLDY    36  29  75 W5        29.94R WCI  32
WAUKESHA       CLEAR     34  28  80 W9        29.94R WCI  26
MILWAUKEE/TIMM CLEAR     34  30  86 W7        29.94R WCI  28
RACINE         CLEAR     35  28  75 W7        29.96R WCI  29
BURLINGTON     CLEAR     27  26  94 SW5       29.95R WCI  22
KENOSHA        CLEAR     33  29  85 W9        29.95R WCI  25
FOND DU LAC    CLEAR     34  27  75 SW7       29.91R WCI  28
SHEBOYGAN      CLEAR     36  28  73 W9        29.89R WCI  29
WEST BEND      CLEAR     36  28  75 W10       29.91R WCI  28
JUNEAU         CLEAR     32  27  81 W7        29.94R WCI  25
$$

LSZ147-162-301100-
LAKE SUPERIOR

STATION/POSITION TIME  TEMP    WIND        PRES    WAVE
                       AIR SEA DIR/SP/G            HT/PER
                 (UTC) (F)     (DEG/KT/KT) (MB)    (FT/S)
DEVILS ISLAND    0900   36     250/ 14/ 16 1010.1R
PORT WING        0900   39     240/ 10/ 18 1011.2R
SAXON HARBOR     0900   38     220/  8/ 11 1009.8
$$

LMZ867-665-643>646-301100-
LAKE MICHIGAN

STATION/POSITION TIME  TEMP    WIND        PRES    WAVE
                       AIR SEA DIR/SP/G            HT/PER
                 (UTC) (F)     (DEG/KT/KT) (MB)    (FT/S)
NORTHPORT PIER   0900   36     260/  6/ 13 1007.8S
SISTER BAY       0902   34     260/ 13/ 14   N/A
KEWAUNEE LAKESHO 0900   38     280/  9/ 12 1009.4R
SHEBOYGAN LAKESH 0900   40     270/ 13/ 15 1012.5S
PORT WASHINGTON  0940   38     270/  4/  8 1013.5R
MILWAUKEE LAKESH 0900   40     270/  8/ 11   N/A
KENOSHA   LAKESH 0900   39     260/  9/ 12 1014.2R
$$

TC  - TEMPERATURE IN CELSIUS
VSB - VISIBILITY IN STATUTE MILES
WCI - WIND CHILL INDEX
HX  - HEAT INDEX



USA.gov is the U.S. government's official web portal to all federal, state and local government web resources and services.